Погода в Сканесе

Тунис     35°46′14″N   10°49′22″E
темп.,
°C
ветер,
м/с
пор.,
м/с
влажн.,
%
обл.,
%
осадки,
мм/ч
давл.,
гПа
погр.,
м
13 мая, чт
чт1301:00+18ю225799 0.0 1017221
04:00+17юз34570 0.0 1016211
07:00+18юз56550 0.0 1016295
10:00+22юз33480 0.0 1016554
13:00+22всв65512 0.0 1015724
16:00+23вюв77512 0.0 1013435
19:00+21вюв57575 0.0 1014273
22:00+19всв44698 0.0 1016173
14 мая, пт
пт1401:00+19юв22650 0.0 101680
04:00+19ююв34643 0.0 101599
07:00+20ю46610 0.0 1015235
10:00+24ю464330 0.0 1015702
13:00+27ююз5733100 0.0 10121212
16:00+30ююв58305 0.0 10091399
19:00+22в45581 0.0 1011141
22:00+20с6107030 0.0 1015342
15 мая, сб
сб1501:00+20ссз610645 0.0 1015528
04:00+18ссз1013716 0.0 1016887
07:00+18ссз911605 0.0 1018852
10:00+20ссз795065 0.0 1018857
13:00+21ссв564323 0.0 1018826
16:00+21всв674853 0.0 1017388
19:00+19в56618 0.0 1017358
22:00+19юв2260100 0.0 1018174
16 мая, вс
вс1601:00+19ююз455643 0.0 1016132
04:00+18ююз45615 0.0 1015167
07:00+19ююз69545 0.0 1015294
10:00+25юз5738100 0.0 1015395
13:00+29ююз133475 0.0 1013850
16:00+29всв24403 0.0 10101090
19:00+27ююв79360 0.0 1011151
22:00+24ю34445 0.0 101393
17 мая, пн
пн1701:00+22ю46530 0.0 1012101
04:00+21ю12580 0.0 101144
07:00+22с01570 0.0 101290
10:00+23ссв54625 0.0 1013291
13:00+23св446093 0.0 1013288
16:00+23всв455727 0.0 1012243
19:00+22св81167100 0.0 1012222
22:00+21с81269100 0.0 1014414